TimeEST,TemperatureF,Dew PointF,Humidity,Sea Level PressureIn,VisibilityMPH,Wind Direction,Wind SpeedMPH,Gust SpeedMPH,PrecipitationIn,Events,Conditions,WindDirDegrees,DateUTC
12:53 AM,37.0,34.0,89,29.66,-9999.0,NW,12.7,-,0.00,,Overcast,320,2012-12-11 05:53:00
1:16 AM,37.4,33.8,87,29.65,-9999.0,NW,11.5,-,0.00,Rain,Light Rain,320,2012-12-11 06:16:00
1:31 AM,37.4,33.8,87,29.66,-9999.0,NW,10.4,20.7,0.01,Rain,Light Rain,320,2012-12-11 06:31:00
1:40 AM,37.4,33.8,87,29.66,-9999.0,NW,11.5,18.4,0.02,Rain,Light Rain,320,2012-12-11 06:40:00
1:53 AM,36.0,34.0,93,29.70,-9999.0,NNW,9.2,-,0.02,Rain,Light Rain,330,2012-12-11 06:53:00
2:38 AM,35.6,33.8,93,29.67,-9999.0,NNW,6.9,-,0.00,Rain,Light Rain,330,2012-12-11 07:38:00
2:53 AM,35.1,33.1,92,29.73,-9999.0,NW,9.2,-,0.00,Rain,Light Rain,320,2012-12-11 07:53:00
3:49 AM,35.6,33.8,93,29.69,-9999.0,NW,8.1,-,0.00,,Overcast,320,2012-12-11 08:49:00
3:53 AM,35.1,33.1,92,29.72,-9999.0,NW,8.1,-,0.00,,Overcast,320,2012-12-11 08:53:00
4:14 AM,35.6,32.0,87,29.70,-9999.0,NW,9.2,17.3,N/A,,Overcast,320,2012-12-11 09:14:00
4:53 AM,35.1,32.0,89,29.74,-9999.0,NW,8.1,18.4,N/A,,Overcast,310,2012-12-11 09:53:00
5:38 AM,35.6,32.0,87,29.74,-9999.0,NW,13.8,20.7,N/A,,Overcast,310,2012-12-11 10:38:00
5:53 AM,35.1,32.0,89,29.78,-9999.0,NW,15.0,19.6,N/A,,Overcast,310,2012-12-11 10:53:00
6:03 AM,35.6,32.0,87,29.76,-9999.0,NW,10.4,20.7,N/A,,Overcast,310,2012-12-11 11:03:00
6:53 AM,35.1,32.0,89,29.83,-9999.0,NW,12.7,17.3,N/A,,Overcast,320,2012-12-11 11:53:00
7:39 AM,33.8,30.2,87,29.81,-9999.0,NNW,8.1,-,N/A,,Scattered Clouds,330,2012-12-11 12:39:00
7:53 AM,34.0,30.9,89,29.85,10.0,NW,9.2,-,N/A,,Mostly Cloudy,310,2012-12-11 12:53:00
8:01 AM,33.8,30.2,87,29.82,10.0,NW,6.9,-,N/A,,Scattered Clouds,310,2012-12-11 13:01:00
8:11 AM,35.6,30.2,81,29.83,10.0,NW,6.9,-,N/A,,Mostly Cloudy,310,2012-12-11 13:11:00
8:53 AM,35.1,30.9,85,29.87,10.0,NW,6.9,-,N/A,,Overcast,320,2012-12-11 13:53:00
9:15 AM,35.6,30.2,81,29.85,10.0,NW,10.4,20.7,N/A,,Overcast,320,2012-12-11 14:15:00
9:53 AM,36.0,30.9,82,29.91,-9999.0,NW,8.1,-,N/A,,Overcast,310,2012-12-11 14:53:00
10:53 AM,36.0,30.0,79,29.92,-9999.0,NNW,9.2,21.9,N/A,,Mostly Cloudy,330,2012-12-11 15:53:00
11:40 AM,37.4,30.2,75,29.86,-9999.0,WNW,13.8,25.3,N/A,,Scattered Clouds,300,2012-12-11 16:40:00
11:53 AM,37.9,30.0,73,29.91,-9999.0,NW,11.5,26.5,N/A,,Scattered Clouds,310,2012-12-11 16:53:00
12:06 PM,39.2,30.2,70,29.87,-9999.0,NW,10.4,-,N/A,,Mostly Cloudy,310,2012-12-11 17:06:00
12:34 PM,37.4,28.4,70,29.89,-9999.0,WNW,15.0,20.7,N/A,,Scattered Clouds,300,2012-12-11 17:34:00
12:53 PM,37.9,30.0,73,29.94,-9999.0,NNW,9.2,18.4,N/A,,Mostly Cloudy,330,2012-12-11 17:53:00
1:09 PM,37.4,30.2,75,29.89,-9999.0,NNW,8.1,17.3,N/A,,Mostly Cloudy,330,2012-12-11 18:09:00
1:53 PM,36.0,30.0,79,29.96,-9999.0,NNW,9.2,-,N/A,,Overcast,330,2012-12-11 18:53:00
2:33 PM,35.6,28.4,75,29.93,-9999.0,NW,8.1,-,N/A,,Overcast,310,2012-12-11 19:33:00
2:48 PM,35.6,28.4,75,29.93,-9999.0,WNW,8.1,-,N/A,,Overcast,300,2012-12-11 19:48:00
2:53 PM,36.0,28.9,76,29.99,-9999.0,NW,8.1,-,N/A,,Overcast,310,2012-12-11 19:53:00
3:53 PM,35.1,28.0,76,30.01,-9999.0,NW,5.8,-,0.00,,Overcast,310,2012-12-11 20:53:00
4:08 PM,35.6,28.4,75,29.96,-9999.0,NW,10.4,-,N/A,,Overcast,310,2012-12-11 21:08:00
4:22 PM,35.6,28.4,75,29.98,-9999.0,NW,10.4,-,N/A,,Overcast,310,2012-12-11 21:22:00
4:53 PM,34.0,28.0,79,30.04,-9999.0,NNW,6.9,-,N/A,,Overcast,340,2012-12-11 21:53:00
5:53 PM,34.0,27.0,75,30.07,-9999.0,NW,5.8,-,N/A,,Overcast,310,2012-12-11 22:53:00
6:03 PM,33.8,26.6,75,30.02,-9999.0,WNW,5.8,-,N/A,,Overcast,300,2012-12-11 23:03:00
6:12 PM,33.8,26.6,75,30.02,-9999.0,NW,3.5,-,N/A,,Overcast,310,2012-12-11 23:12:00
6:53 PM,33.1,26.1,75,30.10,-9999.0,WNW,4.6,-,N/A,,Overcast,290,2012-12-11 23:53:00
7:53 PM,30.0,25.0,82,30.13,-9999.0,Calm,Calm,-,N/A,,Partly Cloudy,0,2012-12-12 00:53:00
8:53 PM,30.9,23.0,72,30.15,-9999.0,WNW,4.6,-,N/A,,Mostly Cloudy,300,2012-12-12 01:53:00
9:53 PM,30.0,21.9,72,30.16,-9999.0,NW,4.6,-,N/A,,Clear,320,2012-12-12 02:53:00
10:53 PM,26.1,21.9,84,30.18,-9999.0,WNW,3.5,-,N/A,,Clear,300,2012-12-12 03:53:00
11:53 PM,26.1,21.9,84,30.19,-9999.0,NW,3.5,-,N/A,,Clear,310,2012-12-12 04:53:00